Regional Weather Roundup
Issued by NWS

Home | Current Version | Previous Version | Text Only | Print | Product List | Glossary Off
Versions: 1 2 3 4 5 6 7 8 9 10 11 12 13 14 15 16 17 18 19 20 21 22 23 24 25 26 27 28 29 30 31 32 33 34 35 36 37 38 39 40 41 42 43 44 45 46 47 48 49 50

574
ASUS43 KLSX 192107
RWRMO

WEATHER SUMMARY FOR MISSOURI
NATIONAL WEATHER SERVICE SPRINGFIELD MO
400 PM CDT THU OCT 19 2017

NOTE: "FAIR" INDICATES FEW OR NO CLOUDS BELOW 12,000 FEET WITH NO
       SIGNIFICANT WEATHER AND/OR OBSTRUCTIONS TO VISIBILITY.
       CURRENT SKY AND/OR WEATHER CONDITIONS ARE NOT AVAILABLE FOR
       CHILLICOTHE AND FARMINGTON.

MOZ001>031-035>038-043-044-053-054-192200-
...NORTHERN AND WESTERN MISSOURI...

CITY           SKY/WX    TMP DP  RH WIND       PRES   REMARKS
KANSAS CTY INT MOSUNNY   78  53  41 S14       30.06F
KANSAS C DTWN  SUNNY     81  53  37 S10       30.05F
LEE`S SUMMIT   SUNNY     80  54  40 S9        30.08S
ST JOSEPH      SUNNY     80  52  37 S13       30.04F
CHILLICOTHE      N/A     78  54  43 S6        30.08S
KIRKSVILLE     SUNNY     76  54  46 S9        30.10F

$$
MOZ066>068-077>081-088>096-101>105-192200-
...SOUTHWEST MISSOURI...

CITY           SKY/WX    TMP DP  RH WIND       PRES   REMARKS
SPRINGFIELD    SUNNY     79  49  34 SE8       30.13F
JOPLIN         SUNNY     76  54  46 SW10      30.13S
BRANSON        PTSUNNY   81  45  28 SE8       30.16F

$$
MOZ032>034-039>042-045>050-055>058-069>072-192200-
...CENTRAL MISSOURI...

CITY           SKY/WX    TMP DP  RH WIND       PRES   REMARKS
COLUMBIA       SUNNY     78  52  40 S9        30.12F
JEFFERSON CITY SUNNY     79  48  33 S7        30.11F
ROLLA          SUNNY     79  50  36 S9        30.15F
SEDALIA        SUNNY     80  52  37 S10       30.11F
WHITEMAN AFB   SUNNY     79  53  40 SW13      30.05F
WARRENSBURG    SUNNY     79  50  36 S9        30.09S
OSAGE BEACH    SUNNY     80  51  36 S7        30.13F

$$
MOZ051-052-059>065-192200-
...EAST CENTRAL MISSOURI...

CITY           SKY/WX    TMP DP  RH WIND       PRES   REMARKS
ST LOUIS INTL  SUNNY     79  50  36 SE8       30.14F
SPIRIT OF STL  SUNNY     80  50  34 SW8       30.12F
ST CHARLES     SUNNY     79  49  34 S10       30.13S

$$
MOZ072>076-082>087-097>100-106>115-192200-
...SOUTH CENTRAL AND SOUTHEAST MISSOURI...

CITY           SKY/WX    TMP DP  RH WIND       PRES   REMARKS
CAPE GIRARDEAU SUNNY     78  49  35 S9        30.18S
FARMINGTON     SUNNY     78  48  34 S12       30.17S
POPLAR BLUFF   MOSUNNY   78  49  35 S8        30.17S HAZE
WEST PLAINS    SUNNY     79  45  29 S8        30.18S

$$



USA.gov is the U.S. government's official web portal to all federal, state and local government web resources and services.